This is the latest recevied weather packets stored in our database for station/object N3WMC. If no packets are shown the sender has not sent any weather packets the latest 10 day(s).
| Time | Temp. | Humidity | Pressure | Rain* | Wind** | Luminosity | Snow |
|---|---|---|---|---|---|---|---|
| 1788037687 | 27.78° C | 41% | 1022.5 hPa | 0 mm | - | 212 W/m² | - |
| 1788037382 | 27.78° C | 42% | 1022.8 hPa | 0 mm | - | 218 W/m² | - |
| 1788037081 | 27.78° C | 43% | 1022.7 hPa | 0 mm | - | 232 W/m² | - |
| 1788036776 | 27.78° C | 41% | 1022.7 hPa | 0 mm | - | 252 W/m² | - |
| 1788036473 | 27.78° C | 41% | 1022.8 hPa | 0 mm | - | 263 W/m² | - |
| 1788036168 | 27.78° C | 41% | 1022.7 hPa | 0 mm | - | 262 W/m² | - |
| 1788035868 | 28.33° C | 40% | 1022.9 hPa | 0 mm | - | 257 W/m² | - |
| 1788035562 | 27.78° C | 41% | 1023 hPa | 0 mm | - | 299 W/m² | - |
| 1788035258 | 27.78° C | 41% | 1023 hPa | 0 mm | - | 236 W/m² | - |
| 1788034953 | 27.78° C | 40% | 1023.3 hPa | 0 mm | - | 331 W/m² | - |
| 1788034650 | 27.78° C | 39% | 1023.5 hPa | 0 mm | - | 299 W/m² | - |
| 1788034346 | 27.78° C | 42% | 1023.4 hPa | 0 mm | - | 319 W/m² | - |
| 1788034045 | 27.22° C | 44% | 1023.4 hPa | 0 mm | - | 346 W/m² | - |
| 1788033739 | 27.78° C | 40% | 1023.6 hPa | 0 mm | - | 357 W/m² | - |
| 1788033433 | 27.78° C | 39% | 1023.7 hPa | 0 mm | - | 366 W/m² | - |
| 1788033128 | 27.22° C | 41% | 1023.7 hPa | 0 mm | - | 374 W/m² | - |
| 1788032824 | 27.22° C | 40% | 1023.8 hPa | 0 mm | - | 382 W/m² | - |
| 1788032524 | 27.22° C | 40% | 1023.8 hPa | 0 mm | - | 394 W/m² | - |
| 1788032219 | 27.78° C | 39% | 1023.8 hPa | 0 mm | - | 405 W/m² | - |
| 1788031915 | 27.78° C | 42% | 1023.7 hPa | 0 mm | - | 418 W/m² | - |
| 1788031615 | 27.78° C | 40% | 1023.7 hPa | 0 mm | - | 429 W/m² | - |
| 1788031315 | 27.78° C | 40% | 1023.9 hPa | 0 mm | - | 434 W/m² | - |
| 1788031013 | 27.22° C | 39% | 1023.9 hPa | 0 mm | - | 447 W/m² | - |
| 1788030708 | 27.78° C | 41% | 1023.7 hPa | 0 mm | - | 463 W/m² | - |
| 1788030403 | 27.22° C | 39% | 1023.8 hPa | 0 mm | - | 464 W/m² | - |
* Rain latest hour (hover to see other rain measurements)
** Current wind speed in m/s (hover to see current wind gust speed)